AAL222 KLAX-KPHX

Flight info

Callsign AAL222
Flight time N/A
Altitude 31000
Route DOTSS2 CNERY BLH HYDRR1
Aircraft B737/M-SDE2E3FGHIRWXY/LB1

Departure

Time 2026-04-23 05:43
Airport Los Angeles International Airport (KLAX)

Arrival

Time N/A
Airport Phoenix Sky Harbor International Airport (KPHX)
Time Latitude Longitude Altitude Speed Heading
2026-04-23 05:15 33.94067 -118.40497 92 ft 0 kts 81°
2026-04-23 05:31 33.94066 -118.40504 92 ft 4 kts 82°
2026-04-23 05:31 33.94067 -118.40533 92 ft 2 kts 105°
2026-04-23 05:31 33.94077 -118.40559 92 ft 4 kts 144°
2026-04-23 05:31 33.94100 -118.40566 92 ft 4 kts 184°
2026-04-23 05:32 33.94115 -118.40565 92 ft 0 kts 174°
2026-04-23 05:34 33.94101 -118.40564 92 ft 6 kts 174°
2026-04-23 05:35 33.94016 -118.40552 94 ft 16 kts 173°
2026-04-23 05:35 33.93904 -118.40536 94 ft 16 kts 173°
2026-04-23 05:35 33.93850 -118.40525 93 ft 5 kts 158°
2026-04-23 05:35 33.93846 -118.40522 93 ft 4 kts 150°
2026-04-23 05:36 33.93832 -118.40499 96 ft 5 kts 108°
2026-04-23 05:36 33.93831 -118.40458 94 ft 10 kts 84°
2026-04-23 05:36 33.93844 -118.40337 95 ft 19 kts 83°
2026-04-23 05:36 33.93861 -118.40170 96 ft 22 kts 83°
2026-04-23 05:37 33.93875 -118.40036 95 ft 27 kts 83°
2026-04-23 05:37 33.93900 -118.39779 97 ft 34 kts 83°
2026-04-23 05:37 33.93920 -118.39588 94 ft 23 kts 83°
2026-04-23 05:38 33.93940 -118.39395 94 ft 23 kts 84°
2026-04-23 05:38 33.93957 -118.39221 93 ft 16 kts 82°
2026-04-23 05:38 33.93960 -118.39197 93 ft 16 kts 82°
2026-04-23 05:38 33.93970 -118.39107 94 ft 15 kts 83°
2026-04-23 05:39 33.93971 -118.39094 93 ft 15 kts 83°
2026-04-23 05:39 33.93982 -118.38977 93 ft 14 kts 82°
2026-04-23 05:39 33.93989 -118.38916 93 ft 14 kts 83°
2026-04-23 05:40 33.94001 -118.38800 94 ft 14 kts 83°
2026-04-23 05:40 33.94012 -118.38689 96 ft 14 kts 83°
2026-04-23 05:40 33.94025 -118.38563 94 ft 16 kts 83°
2026-04-23 05:40 33.94040 -118.38427 98 ft 16 kts 83°
2026-04-23 05:41 33.94048 -118.38347 95 ft 16 kts 83°
2026-04-23 05:41 33.94057 -118.38247 94 ft 15 kts 83°
2026-04-23 05:41 33.94070 -118.38115 94 ft 16 kts 83°
2026-04-23 05:42 33.94051 -118.38002 92 ft 13 kts 151°
2026-04-23 05:42 33.93976 -118.38074 93 ft 21 kts 263°
2026-04-23 05:42 33.93954 -118.38317 97 ft 47 kts 263°
2026-04-23 05:42 33.93885 -118.38992 96 ft 113 kts 263°
2026-04-23 05:43 33.93769 -118.40133 157 ft 156 kts 262°
2026-04-23 05:43 33.93613 -118.41444 797 ft 158 kts 262°
2026-04-23 05:43 33.93452 -118.42797 1375 ft 168 kts 264°
2026-04-23 05:43 33.93338 -118.44212 1982 ft 175 kts 268°
2026-04-23 05:44 33.93197 -118.45694 2697 ft 179 kts 260°
2026-04-23 05:44 33.92795 -118.47180 3177 ft 199 kts 243°
2026-04-23 05:44 33.91945 -118.48598 3564 ft 215 kts 225°
2026-04-23 05:44 33.90666 -118.49515 4161 ft 223 kts 197°
2026-04-23 05:45 33.89037 -118.49786 4222 ft 259 kts 182°
2026-04-23 05:45 33.87150 -118.49736 4750 ft 271 kts 180°
2026-04-23 05:45 33.85318 -118.49801 5734 ft 262 kts 186°
2026-04-23 05:45 33.83488 -118.50023 6624 ft 262 kts 189°
2026-04-23 05:46 33.81671 -118.50291 7221 ft 270 kts 191°
2026-04-23 05:46 33.79789 -118.50594 7920 ft 277 kts 192°
2026-04-23 05:46 33.77846 -118.50914 8713 ft 279 kts 192°
2026-04-23 05:46 33.75962 -118.51229 9657 ft 277 kts 194°
2026-04-23 05:47 33.73988 -118.51529 10277 ft 290 kts 192°
2026-04-23 05:47 33.71939 -118.51626 10929 ft 303 kts 176°
2026-04-23 05:47 33.69978 -118.50690 11734 ft 318 kts 149°
2026-04-23 05:47 33.68486 -118.48653 12357 ft 337 kts 118°
2026-04-23 05:48 33.67681 -118.45988 13129 ft 343 kts 107°
2026-04-23 05:48 33.66998 -118.43223 13905 ft 349 kts 108°
2026-04-23 05:48 33.66250 -118.40426 14614 ft 354 kts 110°
2026-04-23 05:48 33.65445 -118.37622 15382 ft 358 kts 111°
2026-04-23 05:49 33.64653 -118.34762 16115 ft 365 kts 105°
2026-04-23 05:49 33.64443 -118.33477 16412 ft 368 kts 97°